Year,Month,Day,Hour,Minute,Value (Times are PST for windgust in km/hr)
2019,02,09,00,00,17.70
2019,02,09,00,01,33.80
2019,02,09,00,02,25.70
2019,02,09,00,03,20.90
2019,02,09,00,04,22.50
2019,02,09,00,05,32.20
2019,02,09,00,06,30.60
2019,02,09,00,07,30.60
2019,02,09,00,08,29.00
2019,02,09,00,09,35.40
2019,02,09,00,10,33.80
2019,02,09,00,11,37.00
2019,02,09,00,12,25.70
2019,02,09,00,13,11.30
2019,02,09,00,14,20.90
2019,02,09,00,15,22.50
2019,02,09,00,16,24.20
2019,02,09,00,17,29.00
2019,02,09,00,18,29.00
2019,02,09,00,19,22.50
2019,02,09,00,20,14.50
2019,02,09,00,21,20.90
2019,02,09,00,22,11.30
2019,02,09,00,23,24.20
2019,02,09,00,24,20.90
2019,02,09,00,25,17.70
2019,02,09,00,26,16.10
2019,02,09,00,27,20.90
2019,02,09,00,28,22.50
2019,02,09,00,29,17.70
2019,02,09,00,30,17.70
2019,02,09,00,31,17.70
2019,02,09,00,32,9.60
2019,02,09,00,33,16.10
2019,02,09,00,34,17.70
2019,02,09,00,35,9.60
2019,02,09,00,36,14.50
2019,02,09,00,37,16.10
2019,02,09,00,38,25.70
2019,02,09,00,39,27.40
2019,02,09,00,40,16.10
2019,02,09,00,41,20.90
2019,02,09,00,42,12.90
2019,02,09,00,43,14.50
2019,02,09,00,44,27.40
2019,02,09,00,45,20.90
2019,02,09,00,46,32.20
2019,02,09,00,47,24.20
2019,02,09,00,48,25.70
2019,02,09,00,49,29.00
2019,02,09,00,50,19.30
2019,02,09,00,51,19.30
2019,02,09,00,52,27.40
2019,02,09,00,53,29.00
2019,02,09,00,54,22.50
2019,02,09,00,55,19.30
2019,02,09,00,56,35.40
2019,02,09,00,57,29.00
2019,02,09,00,58,24.20
2019,02,09,00,59,35.40
2019,02,09,01,00,20.90
2019,02,09,01,01,22.50
2019,02,09,01,02,27.40
2019,02,09,01,03,25.70
2019,02,09,01,04,30.60
2019,02,09,01,05,20.90
2019,02,09,01,06,11.30
2019,02,09,01,07,24.20
2019,02,09,01,08,33.80
2019,02,09,01,09,24.20
2019,02,09,01,10,20.90
2019,02,09,01,11,9.60
2019,02,09,01,12,14.50
2019,02,09,01,13,14.50
2019,02,09,01,14,24.20
2019,02,09,01,15,20.90
2019,02,09,01,16,24.20
2019,02,09,01,17,19.30
2019,02,09,01,18,22.50
2019,02,09,01,19,22.50
2019,02,09,01,20,16.10
2019,02,09,01,21,19.30
2019,02,09,01,22,19.30
2019,02,09,01,23,17.70
2019,02,09,01,24,17.70
2019,02,09,01,25,16.10
2019,02,09,01,26,19.30
2019,02,09,01,27,16.10
2019,02,09,01,28,24.20
2019,02,09,01,29,24.20
2019,02,09,01,30,27.40
2019,02,09,01,31,25.70
2019,02,09,01,32,27.40
2019,02,09,01,33,32.20
2019,02,09,01,34,24.20
2019,02,09,01,35,19.30
2019,02,09,01,36,24.20
2019,02,09,01,37,17.70
2019,02,09,01,38,41.80
2019,02,09,01,39,32.20
2019,02,09,01,40,25.70
2019,02,09,01,41,32.20
2019,02,09,01,42,20.90
2019,02,09,01,43,19.30
2019,02,09,01,44,19.30
2019,02,09,01,45,16.10
2019,02,09,01,46,14.50
2019,02,09,01,47,11.30
2019,02,09,01,48,27.40
2019,02,09,01,49,33.80
2019,02,09,01,50,25.70
2019,02,09,01,51,30.60
2019,02,09,01,52,27.40
2019,02,09,01,53,19.30
2019,02,09,01,54,19.30
2019,02,09,01,55,24.20
2019,02,09,01,56,17.70
2019,02,09,01,57,20.90
2019,02,09,01,58,22.50
2019,02,09,01,59,14.50
2019,02,09,02,00,22.50
2019,02,09,02,01,22.50
2019,02,09,02,02,11.30
2019,02,09,02,03,19.30
2019,02,09,02,04,17.70
2019,02,09,02,05,33.80
2019,02,09,02,06,27.40
2019,02,09,02,07,17.70
2019,02,09,02,08,16.10
2019,02,09,02,09,30.60
2019,02,09,02,10,32.20
2019,02,09,02,11,38.60
2019,02,09,02,12,43.50
2019,02,09,02,13,33.80
2019,02,09,02,14,37.00
2019,02,09,02,15,41.80
2019,02,09,02,16,29.00
2019,02,09,02,17,30.60
2019,02,09,02,18,25.70
2019,02,09,02,19,24.20
2019,02,09,02,20,25.70
2019,02,09,02,21,17.70
2019,02,09,02,22,20.90
2019,02,09,02,23,19.30
2019,02,09,02,24,16.10
2019,02,09,02,25,16.10
2019,02,09,02,26,17.70
2019,02,09,02,27,17.70
2019,02,09,02,28,19.30
2019,02,09,02,29,24.20
2019,02,09,02,30,17.70
2019,02,09,02,31,19.30
2019,02,09,02,32,16.10
2019,02,09,02,33,20.90
2019,02,09,02,34,29.00
2019,02,09,02,35,25.70
2019,02,09,02,36,32.20
2019,02,09,02,37,27.40
2019,02,09,02,38,29.00
2019,02,09,02,39,35.40
2019,02,09,02,40,35.40
2019,02,09,02,41,27.40
2019,02,09,02,42,35.40
2019,02,09,02,43,30.60
2019,02,09,02,44,25.70
2019,02,09,02,45,19.30
2019,02,09,02,46,17.70
2019,02,09,02,47,20.90
2019,02,09,02,48,35.40
2019,02,09,02,49,29.00
2019,02,09,02,50,20.90
2019,02,09,02,51,17.70
2019,02,09,02,52,17.70
2019,02,09,02,53,19.30
2019,02,09,02,54,33.80
2019,02,09,02,55,25.70
2019,02,09,02,56,16.10
2019,02,09,02,57,22.50
2019,02,09,02,58,35.40
2019,02,09,02,59,43.50
2019,02,09,03,00,25.70
2019,02,09,03,01,22.50
2019,02,09,03,02,30.60
2019,02,09,03,03,17.70
2019,02,09,03,04,30.60
2019,02,09,03,05,30.60
2019,02,09,03,06,25.70
2019,02,09,03,07,29.00
2019,02,09,03,08,19.30
2019,02,09,03,09,37.00
2019,02,09,03,10,32.20
2019,02,09,03,11,33.80
2019,02,09,03,12,25.70
2019,02,09,03,13,25.70
2019,02,09,03,14,41.80
2019,02,09,03,15,32.20
2019,02,09,03,16,37.00
2019,02,09,03,17,24.20
2019,02,09,03,18,27.40
2019,02,09,03,19,29.00
2019,02,09,03,20,17.70
2019,02,09,03,21,35.40
2019,02,09,03,22,30.60
2019,02,09,03,23,19.30
2019,02,09,03,24,22.50
2019,02,09,03,25,25.70
2019,02,09,03,26,22.50
2019,02,09,03,27,20.90
2019,02,09,03,28,17.70
2019,02,09,03,29,22.50
2019,02,09,03,30,37.00
2019,02,09,03,31,33.80
2019,02,09,03,32,30.60
2019,02,09,03,33,20.90
2019,02,09,03,34,20.90
2019,02,09,03,35,29.00
2019,02,09,03,36,22.50
2019,02,09,03,37,30.60
2019,02,09,03,38,29.00
2019,02,09,03,39,25.70
2019,02,09,03,40,37.00
2019,02,09,03,41,32.20
2019,02,09,03,42,25.70
2019,02,09,03,43,35.40
2019,02,09,03,44,46.70
2019,02,09,03,45,35.40
2019,02,09,03,46,43.50
2019,02,09,03,47,30.60
2019,02,09,03,48,37.00
2019,02,09,03,49,27.40
2019,02,09,03,50,32.20
2019,02,09,03,51,35.40
2019,02,09,03,52,25.70
2019,02,09,03,53,30.60
2019,02,09,03,54,27.40
2019,02,09,03,55,32.20
2019,02,09,03,56,40.20
2019,02,09,03,57,33.80
2019,02,09,03,58,27.40
2019,02,09,03,59,25.70
2019,02,09,04,00,35.40
2019,02,09,04,01,32.20
2019,02,09,04,02,35.40
2019,02,09,04,03,32.20
2019,02,09,04,04,25.70
2019,02,09,04,05,27.40
2019,02,09,04,06,30.60
2019,02,09,04,07,17.70
2019,02,09,04,08,16.10
2019,02,09,04,09,27.40
2019,02,09,04,10,17.70
2019,02,09,04,11,20.90
2019,02,09,04,12,29.00
2019,02,09,04,13,27.40
2019,02,09,04,14,20.90
2019,02,09,04,15,25.70
2019,02,09,04,16,22.50
2019,02,09,04,17,24.20
2019,02,09,04,18,32.20
2019,02,09,04,19,33.80
2019,02,09,04,20,30.60
2019,02,09,04,21,27.40
2019,02,09,04,22,27.40
2019,02,09,04,23,20.90
2019,02,09,04,24,27.40
2019,02,09,04,25,32.20
2019,02,09,04,26,24.20
2019,02,09,04,27,32.20
2019,02,09,04,28,37.00
2019,02,09,04,29,46.70
2019,02,09,04,30,25.70
2019,02,09,04,31,29.00
2019,02,09,04,32,40.20
2019,02,09,04,33,35.40
2019,02,09,04,34,32.20
2019,02,09,04,35,19.30
2019,02,09,04,36,17.70
2019,02,09,04,37,16.10
2019,02,09,04,38,38.60
2019,02,09,04,39,45.10
2019,02,09,04,40,30.60
2019,02,09,04,41,25.70
2019,02,09,04,42,25.70
2019,02,09,04,43,30.60
2019,02,09,04,44,38.60
2019,02,09,04,45,25.70
2019,02,09,04,46,37.00
2019,02,09,04,47,37.00
2019,02,09,04,48,30.60
2019,02,09,04,49,40.20
2019,02,09,04,50,25.70
2019,02,09,04,51,24.20
2019,02,09,04,52,19.30
2019,02,09,04,53,25.70
2019,02,09,04,54,29.00
2019,02,09,04,55,30.60
2019,02,09,04,56,30.60
2019,02,09,04,57,30.60
2019,02,09,04,58,30.60
2019,02,09,04,59,30.60
2019,02,09,05,00,30.60
2019,02,09,05,01,27.40
2019,02,09,05,02,19.30
2019,02,09,05,03,22.50
2019,02,09,05,04,32.20
2019,02,09,05,05,22.50
2019,02,09,05,06,40.20
2019,02,09,05,07,24.20
2019,02,09,05,08,30.60
2019,02,09,05,09,20.90
2019,02,09,05,10,16.10
2019,02,09,05,11,14.50
2019,02,09,05,12,30.60
2019,02,09,05,13,35.40
2019,02,09,05,14,20.90
2019,02,09,05,15,35.40
2019,02,09,05,16,24.20
2019,02,09,05,17,24.20
2019,02,09,05,18,29.00
2019,02,09,05,19,29.00
2019,02,09,05,20,41.80
2019,02,09,05,21,27.40
2019,02,09,05,22,33.80
2019,02,09,05,23,33.80
2019,02,09,05,24,33.80
2019,02,09,05,25,38.60
2019,02,09,05,26,45.10
2019,02,09,05,27,40.20
2019,02,09,05,28,30.60
2019,02,09,05,29,38.60
2019,02,09,05,30,43.50
2019,02,09,05,31,29.00
2019,02,09,05,32,29.00
2019,02,09,05,33,32.20
2019,02,09,05,34,33.80
2019,02,09,05,35,33.80
2019,02,09,05,36,27.40
2019,02,09,05,37,22.50
2019,02,09,05,38,17.70
2019,02,09,05,39,19.30
2019,02,09,05,40,20.90
2019,02,09,05,41,24.20
2019,02,09,05,42,24.20
2019,02,09,05,43,35.40
2019,02,09,05,44,32.20
2019,02,09,05,45,33.80
2019,02,09,05,46,22.50
2019,02,09,05,47,29.00
2019,02,09,05,48,25.70
2019,02,09,05,49,22.50
2019,02,09,05,50,35.40
2019,02,09,05,51,33.80
2019,02,09,05,52,19.30
2019,02,09,05,53,24.20
2019,02,09,05,54,19.30
2019,02,09,05,55,16.10
2019,02,09,05,56,14.50
2019,02,09,05,57,14.50
2019,02,09,05,58,22.50
2019,02,09,05,59,33.80
2019,02,09,06,00,37.00
2019,02,09,06,01,32.20
2019,02,09,06,02,32.20
2019,02,09,06,03,29.00
2019,02,09,06,04,27.40
2019,02,09,06,05,32.20
2019,02,09,06,06,24.20
2019,02,09,06,07,32.20
2019,02,09,06,08,24.20
2019,02,09,06,09,25.70
2019,02,09,06,10,19.30
2019,02,09,06,11,30.60
2019,02,09,06,12,29.00
2019,02,09,06,13,32.20
2019,02,09,06,14,33.80
2019,02,09,06,15,19.30
2019,02,09,06,16,17.70
2019,02,09,06,17,19.30
2019,02,09,06,18,17.70
2019,02,09,06,19,19.30
2019,02,09,06,20,16.10
2019,02,09,06,21,24.20
2019,02,09,06,22,37.00
2019,02,09,06,23,29.00
2019,02,09,06,24,29.00
2019,02,09,06,25,22.50
2019,02,09,06,26,33.80
2019,02,09,06,27,25.70
2019,02,09,06,28,20.90
2019,02,09,06,29,45.10
2019,02,09,06,30,41.80
2019,02,09,06,31,29.00
2019,02,09,06,32,35.40
2019,02,09,06,33,30.60
2019,02,09,06,34,30.60
2019,02,09,06,35,25.70
2019,02,09,06,36,35.40
2019,02,09,06,37,29.00
2019,02,09,06,38,20.90
2019,02,09,06,39,41.80
2019,02,09,06,40,35.40
2019,02,09,06,41,33.80
2019,02,09,06,42,32.20
2019,02,09,06,43,27.40
2019,02,09,06,44,24.20
2019,02,09,06,45,45.10
2019,02,09,06,46,46.70
2019,02,09,06,47,38.60
2019,02,09,06,48,48.30
2019,02,09,06,49,43.50
2019,02,09,06,50,38.60
2019,02,09,06,51,30.60
2019,02,09,06,52,37.00
2019,02,09,06,53,29.00
2019,02,09,06,54,32.20
2019,02,09,06,55,40.20
2019,02,09,06,56,24.20
2019,02,09,06,57,27.40
2019,02,09,06,58,29.00
2019,02,09,06,59,37.00
2019,02,09,07,00,30.60
2019,02,09,07,01,22.50
2019,02,09,07,02,19.30
2019,02,09,07,03,25.70
2019,02,09,07,04,19.30
2019,02,09,07,05,20.90
2019,02,09,07,06,25.70
2019,02,09,07,07,11.30
2019,02,09,07,08,30.60
2019,02,09,07,09,25.70
2019,02,09,07,10,24.20
2019,02,09,07,11,32.20
2019,02,09,07,12,37.00
2019,02,09,07,13,27.40
2019,02,09,07,14,25.70
2019,02,09,07,15,27.40
2019,02,09,07,16,37.00
2019,02,09,07,17,35.40
2019,02,09,07,18,32.20
2019,02,09,07,19,27.40
2019,02,09,07,20,24.20
2019,02,09,07,21,19.30
2019,02,09,07,22,29.00
2019,02,09,07,23,37.00
2019,02,09,07,24,32.20
2019,02,09,07,25,25.70
2019,02,09,07,26,24.20
2019,02,09,07,27,20.90
2019,02,09,07,28,19.30
2019,02,09,07,29,22.50
2019,02,09,07,30,22.50
2019,02,09,07,31,27.40
2019,02,09,07,32,30.60
2019,02,09,07,33,27.40
2019,02,09,07,34,30.60
2019,02,09,07,35,27.40
2019,02,09,07,36,24.20
2019,02,09,07,37,17.70
2019,02,09,07,38,19.30
2019,02,09,07,39,29.00
2019,02,09,07,40,37.00
2019,02,09,07,41,41.80
2019,02,09,07,42,30.60
2019,02,09,07,43,29.00
2019,02,09,07,44,25.70
2019,02,09,07,45,38.60
2019,02,09,07,46,25.70
2019,02,09,07,47,32.20
2019,02,09,07,48,32.20
2019,02,09,07,49,33.80
2019,02,09,07,50,37.00
2019,02,09,07,51,38.60
2019,02,09,07,52,25.70
2019,02,09,07,53,35.40
2019,02,09,07,54,38.60
2019,02,09,07,55,30.60
2019,02,09,07,56,37.00
2019,02,09,07,57,32.20
2019,02,09,07,58,30.60
2019,02,09,07,59,40.20
2019,02,09,08,00,29.00
2019,02,09,08,01,33.80
2019,02,09,08,02,35.40
2019,02,09,08,03,33.80
2019,02,09,08,04,22.50
2019,02,09,08,05,25.70
2019,02,09,08,06,29.00
2019,02,09,08,07,22.50
2019,02,09,08,08,37.00
2019,02,09,08,09,35.40
2019,02,09,08,10,24.20
2019,02,09,08,11,22.50
2019,02,09,08,12,17.70
2019,02,09,08,13,20.90
2019,02,09,08,14,20.90
2019,02,09,08,15,22.50
2019,02,09,08,16,16.10
2019,02,09,08,17,22.50
2019,02,09,08,18,24.20
2019,02,09,08,19,22.50
2019,02,09,08,20,19.30
2019,02,09,08,21,14.50
2019,02,09,08,22,9.60
2019,02,09,08,23,17.70
2019,02,09,08,24,25.70
2019,02,09,08,25,20.90
2019,02,09,08,26,16.10
2019,02,09,08,27,16.10
2019,02,09,08,28,24.20
2019,02,09,08,29,20.90
2019,02,09,08,30,24.20
2019,02,09,08,31,20.90
2019,02,09,08,32,27.40
2019,02,09,08,33,29.00
2019,02,09,08,34,35.40
2019,02,09,08,35,37.00
2019,02,09,08,36,29.00
2019,02,09,08,37,27.40
2019,02,09,08,38,27.40
2019,02,09,08,39,16.10
2019,02,09,08,40,17.70
2019,02,09,08,41,29.00
2019,02,09,08,42,19.30
2019,02,09,08,43,24.20
2019,02,09,08,44,16.10
2019,02,09,08,45,20.90
2019,02,09,08,46,19.30
2019,02,09,08,47,19.30
2019,02,09,08,48,14.50
2019,02,09,08,49,11.30
2019,02,09,08,50,14.50
2019,02,09,08,51,9.60
2019,02,09,08,52,6.40
2019,02,09,08,53,4.80
2019,02,09,08,54,9.60
2019,02,09,08,55,4.80
2019,02,09,08,56,19.30
2019,02,09,08,57,37.00
2019,02,09,08,58,30.60
2019,02,09,08,59,19.30
2019,02,09,09,00,24.20
2019,02,09,09,01,20.90
2019,02,09,09,02,27.40
2019,02,09,09,03,30.60
2019,02,09,09,04,32.20
2019,02,09,09,05,38.60
2019,02,09,09,06,32.20
2019,02,09,09,07,32.20
2019,02,09,09,08,43.50
2019,02,09,09,09,30.60
2019,02,09,09,10,35.40
2019,02,09,09,11,32.20
2019,02,09,09,12,33.80
2019,02,09,09,13,25.70
2019,02,09,09,14,29.00
2019,02,09,09,15,43.50
2019,02,09,09,16,27.40
2019,02,09,09,17,32.20
2019,02,09,09,18,22.50
2019,02,09,09,19,32.20
2019,02,09,09,20,16.10
2019,02,09,09,21,22.50
2019,02,09,09,22,27.40
2019,02,09,09,23,32.20
2019,02,09,09,24,22.50
2019,02,09,09,25,24.20
2019,02,09,09,26,24.20
2019,02,09,09,27,24.20
2019,02,09,09,28,16.10
2019,02,09,09,29,9.60
2019,02,09,09,30,16.10
2019,02,09,09,31,17.70
2019,02,09,09,32,29.00
2019,02,09,09,33,41.80
2019,02,09,09,34,35.40
2019,02,09,09,35,22.50
2019,02,09,09,36,32.20
2019,02,09,09,37,32.20
2019,02,09,09,38,22.50
2019,02,09,09,39,37.00
2019,02,09,09,40,22.50
2019,02,09,09,41,20.90
2019,02,09,09,42,11.30
2019,02,09,09,43,27.40
2019,02,09,09,44,14.50
2019,02,09,09,45,27.40
2019,02,09,09,46,32.20
2019,02,09,09,47,40.20
2019,02,09,09,48,53.10
2019,02,09,09,49,46.70
2019,02,09,09,50,48.30
2019,02,09,09,51,57.90
2019,02,09,09,52,49.90
2019,02,09,09,53,33.80
2019,02,09,09,54,40.20
2019,02,09,09,55,33.80
2019,02,09,09,56,22.50
2019,02,09,09,57,17.70
2019,02,09,09,58,19.30
2019,02,09,09,59,43.50
2019,02,09,10,00,30.60
2019,02,09,10,01,30.60
2019,02,09,10,02,30.60
2019,02,09,10,03,37.00
2019,02,09,10,04,30.60
2019,02,09,10,05,48.30
2019,02,09,10,06,38.60
2019,02,09,10,07,37.00
2019,02,09,10,08,41.80
2019,02,09,10,09,29.00
2019,02,09,10,10,35.40
2019,02,09,10,11,33.80
2019,02,09,10,12,38.60
2019,02,09,10,13,46.70
2019,02,09,10,14,35.40
2019,02,09,10,15,48.30
2019,02,09,10,16,32.20
2019,02,09,10,17,24.20
2019,02,09,10,18,27.40
2019,02,09,10,19,17.70
2019,02,09,10,20,40.20
2019,02,09,10,21,33.80
2019,02,09,10,22,25.70
2019,02,09,10,23,48.30
2019,02,09,10,24,40.20
2019,02,09,10,25,49.90
2019,02,09,10,26,38.60
2019,02,09,10,27,30.60
2019,02,09,10,28,46.70
2019,02,09,10,29,32.20
2019,02,09,10,30,46.70
2019,02,09,10,31,35.40
2019,02,09,10,32,49.90
2019,02,09,10,33,45.10
2019,02,09,10,34,61.20
2019,02,09,10,35,33.80
2019,02,09,10,36,41.80
2019,02,09,10,37,45.10
2019,02,09,10,38,45.10
2019,02,09,10,39,41.80
2019,02,09,10,40,37.00
2019,02,09,10,41,38.60
2019,02,09,10,42,29.00
2019,02,09,10,43,27.40
2019,02,09,10,44,46.70
2019,02,09,10,45,43.50
2019,02,09,10,46,25.70
2019,02,09,10,47,33.80
2019,02,09,10,48,40.20
2019,02,09,10,49,32.20
2019,02,09,10,50,40.20
2019,02,09,10,51,35.40
2019,02,09,10,52,43.50
2019,02,09,10,53,41.80
2019,02,09,10,54,40.20
2019,02,09,10,55,38.60
2019,02,09,10,56,27.40
2019,02,09,10,57,41.80
2019,02,09,10,58,35.40
2019,02,09,10,59,35.40
2019,02,09,11,00,35.40
2019,02,09,11,01,37.00
2019,02,09,11,02,40.20
2019,02,09,11,03,33.80
2019,02,09,11,04,33.80
2019,02,09,11,05,32.20
2019,02,09,11,06,51.50
2019,02,09,11,07,43.50
2019,02,09,11,08,35.40
2019,02,09,11,09,20.90
2019,02,09,11,10,33.80
2019,02,09,11,11,17.70
2019,02,09,11,12,17.70
2019,02,09,11,13,27.40
2019,02,09,11,14,32.20
2019,02,09,11,15,43.50
2019,02,09,11,16,30.60
2019,02,09,11,17,40.20
2019,02,09,11,18,40.20
2019,02,09,11,19,33.80
2019,02,09,11,20,29.00
2019,02,09,11,21,35.40
2019,02,09,11,22,38.60
2019,02,09,11,23,27.40
2019,02,09,11,24,43.50
2019,02,09,11,25,35.40
2019,02,09,11,26,43.50
2019,02,09,11,27,27.40
2019,02,09,11,28,22.50
2019,02,09,11,29,40.20
2019,02,09,11,30,41.80
2019,02,09,11,31,45.10
2019,02,09,11,32,45.10
2019,02,09,11,33,33.80
2019,02,09,11,34,27.40
2019,02,09,11,35,43.50
2019,02,09,11,36,40.20
2019,02,09,11,37,46.70
2019,02,09,11,38,40.20
2019,02,09,11,39,32.20
2019,02,09,11,40,29.00
2019,02,09,11,41,27.40
2019,02,09,11,42,24.20
2019,02,09,11,43,25.70
2019,02,09,11,44,20.90
2019,02,09,11,45,19.30
2019,02,09,11,46,30.60
2019,02,09,11,47,30.60
2019,02,09,11,48,17.70
2019,02,09,11,49,20.90
2019,02,09,11,50,27.40
2019,02,09,11,51,12.90
2019,02,09,11,52,27.40
2019,02,09,11,53,35.40
2019,02,09,11,54,38.60
2019,02,09,11,55,22.50
2019,02,09,11,56,20.90
2019,02,09,11,57,29.00
2019,02,09,11,58,27.40
2019,02,09,11,59,25.70
2019,02,09,12,00,29.00
2019,02,09,12,01,27.40
2019,02,09,12,02,22.50
2019,02,09,12,03,14.50
2019,02,09,12,04,27.40
2019,02,09,12,05,11.30
2019,02,09,12,06,17.70
2019,02,09,12,07,20.90
2019,02,09,12,08,22.50
2019,02,09,12,09,33.80
2019,02,09,12,10,33.80
2019,02,09,12,11,27.40
2019,02,09,12,12,24.20
2019,02,09,12,13,40.20
2019,02,09,12,14,45.10
2019,02,09,12,15,32.20
2019,02,09,12,16,12.90
2019,02,09,12,17,17.70
2019,02,09,12,18,9.60
2019,02,09,12,19,24.20
2019,02,09,12,20,27.40
2019,02,09,12,21,19.30
2019,02,09,12,22,32.20
2019,02,09,12,23,29.00
2019,02,09,12,24,27.40
2019,02,09,12,25,19.30
2019,02,09,12,26,25.70
2019,02,09,12,27,27.40
2019,02,09,12,28,16.10
2019,02,09,12,29,19.30
2019,02,09,12,30,11.30
2019,02,09,12,31,16.10
2019,02,09,12,32,22.50
2019,02,09,12,33,27.40
2019,02,09,12,34,17.70
2019,02,09,12,35,11.30
2019,02,09,12,36,20.90
2019,02,09,12,37,29.00
2019,02,09,12,38,22.50
2019,02,09,12,39,29.00
2019,02,09,12,40,20.90
2019,02,09,12,41,27.40
2019,02,09,12,42,20.90
2019,02,09,12,43,22.50
2019,02,09,12,44,24.20
2019,02,09,12,45,22.50
2019,02,09,12,46,24.20
2019,02,09,12,47,19.30
2019,02,09,12,48,22.50
2019,02,09,12,49,22.50
2019,02,09,12,50,19.30
2019,02,09,12,51,16.10
2019,02,09,12,52,24.20
2019,02,09,12,53,20.90
2019,02,09,12,54,22.50
2019,02,09,12,55,11.30
2019,02,09,12,56,12.90
2019,02,09,12,57,8.10
2019,02,09,12,58,8.10
2019,02,09,12,59,8.10
2019,02,09,13,00,6.40
2019,02,09,13,01,16.10
2019,02,09,13,02,11.30
2019,02,09,13,03,9.60
2019,02,09,13,04,20.90
2019,02,09,13,05,19.30
2019,02,09,13,06,19.30
2019,02,09,13,07,24.20
2019,02,09,13,08,12.90
2019,02,09,13,09,9.60
2019,02,09,13,10,11.30
2019,02,09,13,11,22.50
2019,02,09,13,12,14.50
2019,02,09,13,13,19.30
2019,02,09,13,14,14.50
2019,02,09,13,15,11.30
2019,02,09,13,16,11.30
2019,02,09,13,17,22.50
2019,02,09,13,18,25.70
2019,02,09,13,19,19.30
2019,02,09,13,20,27.40
2019,02,09,13,21,29.00
2019,02,09,13,22,25.70
2019,02,09,13,23,25.70
2019,02,09,13,24,25.70
2019,02,09,13,25,32.20
2019,02,09,13,26,20.90
2019,02,09,13,27,25.70
2019,02,09,13,28,22.50
2019,02,09,13,29,24.20
2019,02,09,13,30,25.70
2019,02,09,13,31,30.60
2019,02,09,13,32,22.50
2019,02,09,13,33,30.60
2019,02,09,13,34,27.40
2019,02,09,13,35,19.30
2019,02,09,13,36,24.20
2019,02,09,13,37,24.20
2019,02,09,13,38,22.50
2019,02,09,13,39,27.40
2019,02,09,13,40,29.00
2019,02,09,13,41,25.70
2019,02,09,13,42,27.40
2019,02,09,13,43,17.70
2019,02,09,13,44,16.10
2019,02,09,13,45,25.70
2019,02,09,13,46,22.50
2019,02,09,13,47,20.90
2019,02,09,13,48,17.70
2019,02,09,13,49,20.90
2019,02,09,13,50,19.30
2019,02,09,13,51,29.00
2019,02,09,13,52,19.30
2019,02,09,13,53,25.70
2019,02,09,13,54,25.70
2019,02,09,13,55,17.70
2019,02,09,13,56,20.90
2019,02,09,13,57,19.30
2019,02,09,13,58,16.10
2019,02,09,13,59,8.10
2019,02,09,14,00,11.30
2019,02,09,14,01,20.90
2019,02,09,14,02,20.90
2019,02,09,14,03,20.90
2019,02,09,14,04,24.20
2019,02,09,14,05,24.20
2019,02,09,14,06,24.20
2019,02,09,14,07,24.20
2019,02,09,14,08,22.50
2019,02,09,14,09,22.50
2019,02,09,14,10,16.10
2019,02,09,14,11,17.70
2019,02,09,14,12,17.70
2019,02,09,14,13,27.40
2019,02,09,14,14,19.30
2019,02,09,14,15,16.10
2019,02,09,14,16,20.90
2019,02,09,14,17,20.90
2019,02,09,14,18,14.50
2019,02,09,14,19,17.70
2019,02,09,14,20,17.70
2019,02,09,14,21,19.30
2019,02,09,14,22,30.60
2019,02,09,14,23,19.30
2019,02,09,14,24,19.30
2019,02,09,14,25,11.30
2019,02,09,14,26,22.50
2019,02,09,14,27,16.10
2019,02,09,14,28,17.70
2019,02,09,14,29,14.50
2019,02,09,14,30,16.10
2019,02,09,14,31,9.60
2019,02,09,14,32,24.20
2019,02,09,14,33,24.20
2019,02,09,14,34,16.10
2019,02,09,14,35,22.50
2019,02,09,14,36,16.10
2019,02,09,14,37,17.70
2019,02,09,14,38,19.30
2019,02,09,14,39,20.90
2019,02,09,14,40,19.30
2019,02,09,14,41,17.70
2019,02,09,14,42,20.90
2019,02,09,14,43,19.30
2019,02,09,14,44,16.10
2019,02,09,14,45,11.30
2019,02,09,14,46,20.90
2019,02,09,14,47,20.90
2019,02,09,14,48,29.00
2019,02,09,14,49,14.50
2019,02,09,14,50,19.30
2019,02,09,14,51,14.50
2019,02,09,14,52,14.50
2019,02,09,14,53,16.10
2019,02,09,14,54,20.90
2019,02,09,14,55,24.20
2019,02,09,14,56,20.90
2019,02,09,14,57,24.20
2019,02,09,14,58,19.30
2019,02,09,14,59,22.50
2019,02,09,15,00,22.50
2019,02,09,15,01,24.20
2019,02,09,15,02,22.50
2019,02,09,15,03,22.50
2019,02,09,15,04,16.10
2019,02,09,15,05,14.50
2019,02,09,15,06,19.30
2019,02,09,15,07,24.20
2019,02,09,15,08,12.90
2019,02,09,15,09,25.70
2019,02,09,15,10,19.30
2019,02,09,15,11,29.00
2019,02,09,15,12,24.20
2019,02,09,15,13,27.40
2019,02,09,15,14,27.40
2019,02,09,15,15,17.70
2019,02,09,15,16,19.30
2019,02,09,15,17,19.30
2019,02,09,15,18,22.50
2019,02,09,15,19,22.50
2019,02,09,15,20,22.50
2019,02,09,15,21,20.90
2019,02,09,15,22,17.70
2019,02,09,15,23,24.20
2019,02,09,15,24,22.50
2019,02,09,15,25,20.90
2019,02,09,15,26,14.50
2019,02,09,15,27,25.70
2019,02,09,15,28,24.20
2019,02,09,15,29,22.50
2019,02,09,15,30,14.50
2019,02,09,15,31,19.30
2019,02,09,15,32,20.90
2019,02,09,15,33,17.70
2019,02,09,15,34,16.10
2019,02,09,15,35,12.90
2019,02,09,15,36,11.30
2019,02,09,15,37,20.90
2019,02,09,15,38,22.50
2019,02,09,15,39,20.90
2019,02,09,15,40,19.30
2019,02,09,15,41,14.50
2019,02,09,15,42,17.70
2019,02,09,15,43,17.70
2019,02,09,15,44,17.70
2019,02,09,15,45,12.90
2019,02,09,15,46,27.40
2019,02,09,15,47,20.90
2019,02,09,15,48,11.30
2019,02,09,15,49,9.60
2019,02,09,15,50,16.10
2019,02,09,15,51,11.30
2019,02,09,15,52,16.10
2019,02,09,15,53,11.30
2019,02,09,15,54,16.10
2019,02,09,15,55,16.10
2019,02,09,15,56,9.60
2019,02,09,15,57,17.70
2019,02,09,15,58,16.10
2019,02,09,15,59,17.70
2019,02,09,16,00,19.30
2019,02,09,16,01,17.70
2019,02,09,16,02,22.50
2019,02,09,16,03,17.70
2019,02,09,16,04,14.50
2019,02,09,16,05,17.70
2019,02,09,16,06,17.70
2019,02,09,16,07,14.50
2019,02,09,16,08,11.30
2019,02,09,16,09,8.10
2019,02,09,16,10,6.40
2019,02,09,16,11,6.40
2019,02,09,16,12,14.50
2019,02,09,16,13,19.30
2019,02,09,16,14,17.70
2019,02,09,16,15,16.10
2019,02,09,16,16,16.10
2019,02,09,16,17,16.10
2019,02,09,16,18,12.90
2019,02,09,16,19,9.60
2019,02,09,16,20,9.60
2019,02,09,16,21,6.40
2019,02,09,16,22,9.60
2019,02,09,16,23,14.50
2019,02,09,16,24,11.30
2019,02,09,16,25,14.50
2019,02,09,16,26,16.10
2019,02,09,16,27,17.70
2019,02,09,16,28,8.10
2019,02,09,16,29,8.10
2019,02,09,16,30,8.10
2019,02,09,16,31,6.40
2019,02,09,16,32,12.90
2019,02,09,16,33,8.10
2019,02,09,16,34,6.40
2019,02,09,16,35,3.20
2019,02,09,16,36,4.80
2019,02,09,16,37,4.80
2019,02,09,16,38,8.10
2019,02,09,16,39,6.40
2019,02,09,16,40,6.40
2019,02,09,16,41,8.10
2019,02,09,16,42,14.50
2019,02,09,16,43,9.60
2019,02,09,16,44,11.30
2019,02,09,16,45,11.30
2019,02,09,16,46,8.10
2019,02,09,16,47,8.10
2019,02,09,16,48,6.40
2019,02,09,16,49,9.60
2019,02,09,16,50,8.10
2019,02,09,16,51,9.60
2019,02,09,16,52,8.10
2019,02,09,16,53,8.10
2019,02,09,16,54,6.40
2019,02,09,16,55,11.30
2019,02,09,16,56,16.10
2019,02,09,16,57,11.30
2019,02,09,16,58,16.10
2019,02,09,16,59,9.60
2019,02,09,17,00,14.50
2019,02,09,17,01,12.90
2019,02,09,17,02,11.30
2019,02,09,17,03,8.10
2019,02,09,17,04,6.40
2019,02,09,17,05,8.10
2019,02,09,17,06,9.60
2019,02,09,17,07,9.60
2019,02,09,17,08,6.40
2019,02,09,17,09,6.40
2019,02,09,17,10,8.10
2019,02,09,17,11,8.10
2019,02,09,17,12,8.10
2019,02,09,17,13,6.40
2019,02,09,17,14,4.80
2019,02,09,17,15,6.40
2019,02,09,17,16,8.10
2019,02,09,17,17,9.60
2019,02,09,17,18,8.10
2019,02,09,17,19,8.10
2019,02,09,17,20,8.10
2019,02,09,17,21,8.10
2019,02,09,17,22,6.40